SL-8 DEB, 39696

Orbit data source: Space-Track

SL-8 DEB, 39696 is space debris in LEO originally from a launch on Tue, 12 Feb 1991 UTC launched from the Plesetsk Missile And Space Complex (PKMTR). Debris objects in space refer to the collection of defunct objects orbiting the Earth. Examples of debris include non-operational satellites, rocket bodies, and fragments generated from explosions, collisions, or faulty payload assembly.

Loading next visibility...
Identifier
39696, 1991-009DK
Orbit
LEO
Country
Flag of CISCIS
Related business
Manufacturer
Unknown
Mission
Spacecraft
Bus & Motor
Unknown
Mass
Unknown
Launch date (UTC)
1991-02-12 (35 years ago)
Launch vehicle
Unknown
Launch site
Plesetsk Missile And Space Complex (PKMTR)
Object type
Payload
Rocket body
Debris
Shape & HBR
Unknown shape, 1.1 m
Radar Cross Section
Medium (>0.1 m² and <1 m²)

Expand to show TLE details & history
Last TLE update: 2 months ago

TLE from 2 months ago
0 SL-8 DEB
1 39696U 91009DK  26105.10490725  .00000080  00000-0  84859-3 0  9999
2 39696  74.0473 258.3658 0174851 336.1210  23.1784 12.22113330534790
Epoch: 2026-04-15T02:31Z
TLE epoch observation values (Epoch: 2026-04-15T02:31:03.986Z)
Latitude
-0.00007°
Longitude
17.32759°
Altitude
1,458.095 km
Speed
7.19 km/s
True Right ascension
17h 13m 27s
True Declination
0° 00' 00"
Sunlit
Object was in daylight at epoch
Visualization orbit readout
Latitude
Unknown
Longitude
Unknown
Altitude
Unknown
Speed
Unknown
Apparent Right ascension
Unknown
Apparent Declination
Unknown
Sunlit
N/A
Visualization observer readout
Local Sidereal Time
01:06:03
Azimuth
Unknown
Elevation
Unknown
Doppler factor
Unknown
Orbital elements
Apogee altitude
1,720.385 km
Perigee altitude
1,442.045 km
Semi-major axis
7,959.352 km
Eccentricity
0.01749
Inclination
74.0473°
RAAN
258.3658°
Arg. of periapsis
336.121°
True anomaly
23.98316°
Mean anomaly
23.1784°
Eccentric anomaly
23.57914°
Mean motion
3.05652 °/min
Orbital period
117.78 mins
BSTAR
0.00084859
Loading maneuver chart data...
Computing Atmospheric mass density...
Loading historical data...
Loading historical data...
Loading historical data...
Loading historical data...
Loading historical data...
Loading historical data...
Loading historical data...

Documentation

Showing up to 5 results
|